Tracking 19562 objects as of 23-Mar-2019
HD Live streaming from Space Station
objects crossing your sky now

METEOR 2-11 DEB

Track METEOR 2-11 DEB now!
10-day predictions


NORAD ID: 40317
Int'l Code: 1984-072C
Perigee: 923.1 km
Apogee: 958.0 km
Inclination: 82.5 °
Period: 103.7 minutes
Semi major axis: 7311 km
RCS: Unknown
Launch date: July 5, 1984
Source: Commonwealth of Independent States (former USSR) (CIS)
Launch site: PLESETSK MISSILE AND SPACE COMPLEX (PKMTR)

Note: This is SATELLITE DEBRIS
aabbcc
Your satellite tracking list
Your tracking list is empty




NASA's NSSDC Master Catalog

Two Line Element Set (TLE):
1 40317U 84072C   19080.41310415 +.00001467 +00000-0 +12042-2 0  9992
2 40317 082.5279 342.4510 0023827 010.8676 349.2997 13.88641338217995
Source of the keplerian elements: AFSPC